Location: Unspecified
(0.0000°N, 0.0000°E)
Time: 13:45:58
(UTC+00:00)

Vanguard 3 - Pass Details

Date: 23 November 2019
Orbit: 508 x 3263 km, 33.3° (Epoch: 08 December)

Event Time Altitude Azimuth Distance (km) Brightness Sun altitude
Rises 11:35:24 0° 266° (W) 5,510 11.4 69.5°
Reaches altitude 10° 11:39:06 10° 275° (W) 4,865 11.2 69.6°
Maximum altitude 11:52:15 35° 335° (NNW) 4,099 11.0 69.6°
Drops below altitude 10° 12:09:19 10° 34° (NE) 6,189 11.5 68.9°
Sets 12:15:00 0° 43° (NE) 7,125 11.8 68.5°
